Location: State Line Observation Field
(36.5320°N, 77.5360°W)
Time: 05:16:43
(UTC-05:00)

LightSail 2 - Pass Details

Date: 17 November 2019
Orbit: 695 x 731 km, 24.0° (Epoch: 05 December)

Event Time Altitude Azimuth Distance (km) Brightness Sun altitude
Exits shadow 04:40:36 17° 190° (S) 1,768 7.1 -25.8°
Maximum altitude 04:40:36 17° 190° (S) 1,768 7.1 -25.8°
Drops below altitude 10° 04:43:56 10° 150° (SSE) 2,207 8.1 -25.2°
Sets 04:47:10 0° 130° (SE) 3,130 9.3 -24.5°
